Date String (YYYY-MM-DD hh:mm:ss) UTC,Instrument flags,absolute air pressure of the measurement (hPa),sample flow rate (lpm),inlet stack bypass flow (lpm),air temperature of the measurement (°C),ambient temperature measured by the external sensor (°C),aerosol sample conditioner tube jacket temperature (°C),OPC LED temperature (°C),internal box temperature (°C),relative humidity of the measurement (%),span deviation,mass concentration of particles derived from Lorenz-Mie calculation of OPC scattering (μg/m³),mass concentration of particles derived from Lorenz-Mie calculation of OPC scattering (μg/m³),mass concentration of particles derived from Lorenz-Mie calculation of OPC scattering (μg/m³)
DateTimeUTC,F1_M11,P_M11,Q1_M11,Q2_M11,T1_M11,T2_M11,T3_M11,T4_M11,T5_M11,U1_M11,ZSPAN_M11,X0_M11,X2_M11,X1_M11
2024-04-26 15:00:00,SystemResetWarning,0816.0,5.00,000.00,025.4,024.6,000.0,033.8,027.2,023.0,0000.0,0007.19,0002.53,0001.73
2024-04-26 15:01:00,SystemResetWarning,0816.0,5.01,000.00,025.4,024.6,000.0,033.8,027.2,022.8,0000.0,0007.42,0002.64,0001.75
2024-04-26 15:02:00,SystemResetWarning,0816.0,5.00,000.00,025.4,024.6,000.0,033.8,027.3,022.8,0000.0,0007.74,0002.73,0001.77
2024-04-26 15:03:00,SystemResetWarning,0816.0,4.99,000.00,025.4,024.7,000.0,033.8,027.3,022.5,0000.0,0008.58,0002.76,0001.78
2024-04-26 15:04:00,SystemResetWarning,0816.0,4.99,000.00,025.4,024.7,000.0,033.8,027.3,022.1,0000.0,0008.26,0002.84,0001.79
2024-04-26 15:05:00,SystemResetWarning,0816.0,5.00,000.00,025.5,024.7,000.0,033.8,027.3,022.6,0000.0,0008.35,0002.96,0001.81
2024-04-26 15:06:00,SystemResetWarning,0816.0,5.01,000.00,025.5,024.7,000.0,033.8,027.3,021.3,0000.0,0008.41,0003.00,0001.81
2024-04-26 15:07:00,SystemResetWarning,0816.0,5.00,000.00,025.5,024.7,000.0,033.9,027.3,020.9,0000.0,0008.58,0002.96,0001.80
2024-04-26 15:08:00,SystemResetWarning,0816.0,4.99,000.00,025.5,024.7,000.0,033.9,027.3,019.9,0000.0,0009.25,0002.89,0001.79
2024-04-26 15:09:00,SystemResetWarning,0816.0,5.01,000.00,025.5,024.7,000.0,033.9,027.3,020.4,0000.0,0009.38,0002.78,0001.76
2024-04-26 15:10:00,SystemResetWarning,0816.0,4.99,000.00,025.5,024.7,000.0,033.9,027.3,020.5,0000.0,0008.96,0002.73,0001.74
2024-04-26 15:11:00,SystemResetWarning,0815.9,4.99,000.00,025.5,024.8,000.0,033.9,027.3,019.8,0000.0,0008.68,0002.68,0001.72
2024-04-26 15:12:00,SystemResetWarning,0815.8,5.00,000.00,025.5,024.8,000.0,033.9,027.4,019.8,0000.0,0008.51,0002.60,0001.69
2024-04-26 15:13:00,SystemResetWarning,0815.8,5.01,000.00,025.5,024.8,000.0,033.9,027.4,020.3,0000.0,0008.39,0002.58,0001.67
2024-04-26 15:14:00,SystemResetWarning,0815.8,5.00,000.00,025.6,024.8,000.0,033.9,027.4,019.1,0000.0,0007.40,0002.58,0001.66
2024-04-26 15:15:00,SystemResetWarning,0815.9,5.00,000.00,025.6,024.8,000.0,033.9,027.4,018.6,0000.0,0007.34,0002.51,0001.64
2024-04-26 15:16:00,SystemResetWarning,0815.7,4.99,000.00,025.6,024.8,000.0,034.0,027.4,017.5,0000.0,0007.15,0002.39,0001.61
2024-04-26 15:17:00,SystemResetWarning,0815.9,4.99,000.00,025.6,024.8,000.0,034.0,027.4,016.7,0000.0,0006.95,0002.27,0001.58
2024-04-26 15:18:00,SystemResetWarning,0815.9,5.00,000.00,025.6,024.8,000.0,034.0,027.4,015.8,0000.0,0006.58,0002.22,0001.56
2024-04-26 15:19:00,SystemResetWarning,0815.9,5.00,000.00,025.6,024.8,000.0,034.0,027.4,015.0,0000.0,0004.90,0002.20,0001.53
2024-04-26 15:20:00,SystemResetWarning,0815.9,5.00,000.00,025.6,024.8,000.0,034.0,027.4,015.9,0000.0,0004.24,0002.22,0001.53
2024-04-26 15:21:00,SystemResetWarning,0815.8,5.01,000.00,025.6,024.8,000.0,034.0,027.4,015.5,0000.0,0004.51,0002.24,0001.53
2024-04-26 15:22:00,SystemResetWarning,0815.8,5.01,000.00,025.6,024.8,000.0,034.0,027.4,015.0,0000.0,0004.53,0002.22,0001.52
2024-04-26 15:23:00,SystemResetWarning,0815.8,5.00,000.00,025.6,024.8,000.0,034.0,027.4,015.1,0000.0,0004.45,0002.18,0001.51
2024-04-26 15:24:00,SystemResetWarning,0815.8,5.00,000.00,025.6,024.9,000.0,034.0,027.5,015.2,0000.0,0004.19,0002.10,0001.49
2024-04-26 15:25:00,SystemResetWarning,0815.8,5.00,000.00,025.6,024.9,000.0,034.0,027.5,015.1,0000.0,0004.01,0002.03,0001.46
2024-04-26 15:26:00,SystemResetWarning,0815.8,5.00,000.00,025.7,024.9,000.0,034.0,027.5,015.0,0000.0,0004.02,0002.01,0001.44
2024-04-26 15:27:00,SystemResetWarning,0815.8,4.99,000.00,025.7,024.9,000.0,034.1,027.5,014.8,0000.0,0004.24,0002.02,0001.43
2024-04-26 15:28:00,SystemResetWarning,0815.8,5.00,000.00,025.7,024.9,000.0,034.1,027.5,015.1,0000.0,0004.45,0002.08,0001.42
2024-04-26 15:29:00,SystemResetWarning,0815.8,5.02,000.00,025.7,025.0,000.0,034.1,027.5,015.1,0000.0,0004.62,0002.13,0001.42
2024-04-26 15:30:00,SystemResetWarning,0815.8,5.00,000.00,025.7,025.0,000.0,034.1,027.5,014.7,0000.0,0004.85,0002.18,0001.42
2024-04-26 15:31:00,SystemResetWarning,0815.8,5.00,000.00,025.7,025.0,000.0,034.1,027.5,014.5,0000.0,0004.71,0002.19,0001.41
2024-04-26 15:32:00,SystemResetWarning,0815.9,5.00,000.00,025.7,025.0,000.0,034.1,027.5,014.2,0000.0,0004.26,0002.16,0001.40
2024-04-26 15:33:00,SystemResetWarning,0815.9,5.00,000.00,025.7,025.0,000.0,034.1,027.5,014.4,0000.0,0004.24,0002.18,0001.40
2024-04-26 15:34:00,SystemResetWarning,0815.9,5.00,000.00,025.7,025.0,000.0,034.1,027.5,014.4,0000.0,0004.29,0002.21,0001.40
2024-04-26 15:35:00,SystemResetWarning,0815.8,5.00,000.00,025.7,025.0,000.0,034.1,027.5,014.5,0000.0,0004.31,0002.17,0001.39
2024-04-26 15:36:00,SystemResetWarning,0815.8,5.00,000.00,025.7,025.0,000.0,034.1,027.6,014.7,0000.0,0004.33,0002.17,0001.38
2024-04-26 15:37:00,SystemResetWarning,0815.8,5.00,000.00,025.8,025.0,000.0,034.1,027.6,014.7,0000.0,0004.23,0002.15,0001.38
2024-04-26 15:38:00,SystemResetWarning,0815.9,4.99,000.00,025.8,025.1,000.0,034.2,027.6,014.4,0000.0,0004.16,0002.13,0001.38
2024-04-26 15:39:00,SystemResetWarning,0815.9,5.00,000.00,025.8,025.1,000.0,034.2,027.6,014.5,0000.0,0003.92,0002.10,0001.38
2024-04-26 15:40:00,SystemResetWarning,0815.9,5.00,000.00,025.8,025.1,000.0,034.2,027.6,014.6,0000.0,0003.83,0002.10,0001.39
2024-04-26 15:41:00,SystemResetWarning,0815.9,4.99,000.00,025.8,025.1,000.0,034.2,027.6,014.6,0000.0,0003.65,0002.08,0001.40
2024-04-26 15:42:00,SystemResetWarning,0815.9,5.02,000.00,025.8,025.1,000.0,034.2,027.6,014.5,0000.0,0003.63,0002.09,0001.41
2024-04-26 15:43:00,SystemResetWarning,0815.9,5.00,000.00,025.8,025.1,000.0,034.2,027.7,014.6,0000.0,0004.91,0002.09,0001.40
2024-04-26 15:44:00,SystemResetWarning,0815.9,4.99,000.00,025.9,025.2,000.0,034.2,027.7,014.8,0000.0,0004.88,0002.07,0001.40
2024-04-26 15:45:00,SystemResetWarning,0815.9,4.99,000.00,025.9,025.2,000.0,034.2,027.7,014.5,0000.0,0004.95,0002.09,0001.40
2024-04-26 15:46:00,SystemResetWarning,0815.9,5.00,000.00,025.9,025.2,000.0,034.2,027.7,014.1,0000.0,0004.86,0002.09,0001.41
2024-04-26 15:47:00,SystemResetWarning,0815.9,5.01,000.00,025.9,025.2,000.0,034.3,027.7,014.0,0000.0,0004.76,0002.09,0001.41
2024-04-26 15:48:00,SystemResetWarning,0815.8,5.00,000.00,025.9,025.2,000.0,034.3,027.7,013.7,0000.0,0004.64,0002.05,0001.40
2024-04-26 15:49:00,SystemResetWarning,0815.8,4.99,000.00,025.9,025.2,000.0,034.3,027.7,014.1,0000.0,0004.45,0002.03,0001.41
2024-04-26 15:50:00,SystemResetWarning,0815.8,4.99,000.00,025.9,025.2,000.0,034.3,027.7,014.2,0000.0,0004.37,0002.00,0001.41
2024-04-26 15:51:00,SystemResetWarning,0815.8,5.00,000.00,025.9,025.2,000.0,034.3,027.8,014.3,0000.0,0004.31,0001.96,0001.40
2024-04-26 15:52:00,SystemResetWarning,0815.8,5.00,000.00,025.9,025.2,000.0,034.3,027.7,014.4,0000.0,0004.45,0001.96,0001.39
2024-04-26 15:53:00,SystemResetWarning,0815.9,5.01,000.00,025.9,025.2,000.0,034.3,027.7,014.4,0000.0,0004.47,0001.93,0001.39
2024-04-26 15:54:00,SystemResetWarning,0815.8,5.00,000.00,026.0,025.3,000.0,034.3,027.7,014.4,0000.0,0003.35,0001.93,0001.39
2024-04-26 15:55:00,SystemResetWarning,0815.8,4.99,000.00,026.0,025.3,000.0,034.3,027.7,014.0,0000.0,0003.90,0001.97,0001.39
2024-04-26 15:56:00,SystemResetWarning,0815.8,5.00,000.00,026.0,025.3,000.0,034.3,027.8,013.8,0000.0,0007.07,0001.98,0001.39
2024-04-26 15:57:00,SystemResetWarning,0815.8,4.99,000.00,026.0,025.2,000.0,034.4,027.8,013.8,0000.0,0007.46,0001.99,0001.39
2024-04-26 15:58:00,SystemResetWarning,0815.8,5.00,000.00,026.0,025.3,000.0,034.4,027.8,014.3,0000.0,0007.54,0002.03,0001.39
2024-04-26 15:59:00,SystemResetWarning,0815.9,5.00,000.00,026.0,025.3,000.0,034.4,027.8,014.1,0000.0,0007.58,0002.05,0001.39
